Overview Statistics Trail Chart Weather Telemetry Raw packets
 

This is the latest recevied weather packets stored in our database for station/object K4QXN-13. If no packets are shown the sender has not sent any weather packets the latest 10 day(s).

<< 105 106 107 108 109 110 111 >>
Time Temp. Humidity Pressure Rain* Wind** Luminosity Snow
1787770496 31.67° C 62% 1016.9 hPa 0 mm - - -
1787770194 32.78° C 60% 1016.9 hPa 0 mm - - -
1787769893 31.67° C 62% 1017.2 hPa 0 mm - - -
1787769591 31.11° C 62% 1016.9 hPa 0 mm - - -
1787769289 31.67° C 62% 1017.2 hPa 0 mm - - -
1787768988 31.11° C 65% 1017.2 hPa 0 mm - - -
1787768686 31.11° C 64% 1016.9 hPa 0 mm - - -
1787768385 30.56° C 66% 1017.2 hPa 0 mm - - -
1787768083 30.56° C 66% 1017.2 hPa 0 mm - - -
1787767781 30.56° C 66% 1017.2 hPa 0 mm - - -
1787767480 31.67° C 63% 1017.2 hPa 0 mm - - -
1787767178 31.67° C 65% 1017.2 hPa 0 mm - - -
1787766876 31.11° C 65% 1017.2 hPa 0 mm - - -
1787766575 30.56° C 65% 1017.2 hPa 0 mm - - -
1787766273 31.67° C 63% 1017.2 hPa 0 mm - - -
1787765971 31.67° C 64% 1017.2 hPa 0 mm - - -
1787765670 32.22° C 60% 1017.6 hPa 0 mm - - -
1787765368 33.89° C 56% 1017.6 hPa 0 mm - - -
1787765066 33.89° C 58% 1017.6 hPa 0 mm - - -
1787764765 32.22° C 61% 1017.9 hPa 0 mm - - -
1787764463 32.22° C 61% 1017.9 hPa 0 mm - - -
1787764162 31.11° C 65% 1017.9 hPa 0 mm - - -
1787763860 30.56° C 68% 1017.9 hPa 0 mm - - -
1787763558 30° C 68% 1017.9 hPa 0 mm - - -
1787763257 30.56° C 68% 1017.9 hPa 0 mm - - -

* Rain latest hour (hover to see other rain measurements)
** Current wind speed in m/s (hover to see current wind gust speed)